Location: Rounton
(54.4000°N, 1.3500°W)
Time: 07:55:21
(UTC+00:00)

Vanguard 1 Rocket - Pass Details

Date: 01 December 2021
Orbit: 651 x 4224 km, 34.3° (Epoch: 19 January)

Event Time Altitude Azimuth Distance (km) Brightness Sun altitude
Rises 04:49:17 0° 240° (WSW) 5,504 - -27.0°
Reaches altitude 10° 04:52:37 10° 232° (SW) 4,911 - -26.5°
Exits shadow 04:54:49 17° 226° (SW) 4,600 10.6 -26.2°
Maximum altitude 05:06:21 39° 171° (S) 4,343 10.8 -24.5°
Drops below altitude 10° 05:27:29 10° 114° (ESE) 7,386 13.1 -21.5°
Sets 05:34:05 0° 108° (ESE) 8,467 13.9 -20.5°
